EW5967 Weather Reports


Display with metric or nautical units.
time (UTC)temp
F
wind
direction
speed
MPH
gust
MPH
rain 1hr
in
rain 24hr
in
rain mn
in
humidity
%
barometer
mb
20260508035503 80 220 0.0 2.0 0.00 0.00 0.00 14 1006.7
20260508035004 80 220 0.0 3.0 0.00 0.00 0.00 14 1006.7
20260508034502 80 220 0.0 3.0 0.00 0.00 0.00 14 1006.7
20260508034002 80 220 0.0 2.0 0.00 0.00 0.00 14 1006.6
20260508033501 80 220 0.0 3.0 0.00 0.00 0.00 14 1006.5
20260508033003 80 220 1.0 4.0 0.00 0.00 0.00 14 1006.4
20260508032502 81 219 1.0 4.0 0.00 0.00 0.00 14 1006.4
20260508032000 81 217 1.0 4.0 0.00 0.00 0.00 15 1006.5
20260508031502 81 211 0.0 3.0 0.00 0.00 0.00 15 1006.5
20260508031000 81 208 0.0 5.0 0.00 0.00 0.00 15 1006.4
20260508030601 81 201 0.0 5.0 0.00 0.00 0.00 15 1006.4
20260508030100 82 193 0.0 1.0 0.00 0.00 0.00 15 1006.4
20260508025600 82 193 0.0 1.0 0.00 0.00 0.00 15 1006.3
20260508025100 82 193 0.0 1.0 0.00 0.00 0.00 15 1006.3
20260508024601 83 193 0.0 1.0 0.00 0.00 0.00 15 1006.2
20260508024100 83 193 0.0 1.0 0.00 0.00 0.00 14 1006.2
20260508023600 83 193 0.0 1.0 0.00 0.00 0.00 14 1006.2
20260508023059 83 193 0.0 2.0 0.00 0.00 0.00 14 1006.1
20260508022559 84 193 0.0 2.0 0.00 0.00 0.00 14 1006.1
20260508022059 84 193 0.0 4.0 0.00 0.00 0.00 14 1006.1
20260508021602 84 193 0.0 4.0 0.00 0.00 0.00 14 1006.1
20260508021058 84 194 0.0 4.0 0.00 0.00 0.00 14 1006.0
20260508020559 84 194 1.0 4.0 0.00 0.00 0.00 14 1006.1
20260508020104 84 197 1.0 3.0 0.00 0.00 0.00 14 1006.1
20260508015558 85 197 0.0 4.0 0.00 0.00 0.00 14 1006.1
20260508015058 85 197 1.0 4.0 0.00 0.00 0.00 14 1006.1
20260508014559 85 182 2.0 4.0 0.00 0.00 0.00 14 1006.1
20260508014057 85 175 2.0 4.0 0.00 0.00 0.00 14 1006.0
20260508013557 85 175 1.0 4.0 0.00 0.00 0.00 14 1006.0
20260508013100 85 178 1.0 5.0 0.00 0.00 0.00 14 1006.0
20260508012557 86 178 2.0 5.0 0.00 0.00 0.00 13 1006.1
20260508012056 86 174 1.0 4.0 0.00 0.00 0.00 13 1006.1
20260508011603 85 178 1.0 7.0 0.00 0.00 0.00 14 1006.1
20260508011055 85 193 2.0 7.0 0.00 0.00 0.00 14 1006.2
20260508010555 85 144 4.0 7.0 0.00 0.00 0.00 13 1006.3
20260508010054 85 160 1.0 5.0 0.00 0.00 0.00 13 1006.3
20260508005556 85 153 2.0 6.0 0.00 0.00 0.00 14 1006.4
20260508005055 86 156 2.0 6.0 0.00 0.00 0.00 13 1006.4
20260508004552 86 132 2.0 7.0 0.00 0.00 0.00 13 1006.4
20260508004057 86 130 2.0 7.0 0.00 0.00 0.00 13 1006.4
20260508003551 86 96 0.0 3.0 0.00 0.00 0.00 14 1006.4
20260508003051 86 96 1.0 3.0 0.00 0.00 0.00 13 1006.4
20260508002551 86 109 0.0 6.0 0.00 0.00 0.00 13 1006.5
20260508002051 86 106 1.0 6.0 0.00 0.00 0.00 13 1006.5
20260508001610 86 139 2.0 4.0 0.00 0.00 0.00 13 1006.6
20260508001050 86 100 0.0 7.0 0.00 0.00 0.00 13 1006.6
20260508000549 86 100 1.0 10.0 0.00 0.00 0.00 13 1006.6
20260508000047 86 26 1.0 7.0 0.00 0.00 0.00 13 1006.7
20260507235546 86 88 2.0 9.0 0.00 0.00 0.00 13 1006.7
20260507235045 86 140 4.0 9.0 0.00 0.00 0.00 13 1006.8
20260507234547 86 146 3.0 5.0 0.00 0.00 0.00 13 1006.8
20260507234103 86 95 0.0 3.0 0.00 0.00 0.00 13 1006.8
20260507233544 86 58 0.0 7.0 0.00 0.00 0.00 13 1006.9
20260507233043 86 105 0.0 7.0 0.00 0.00 0.00 13 1006.9
20260507232543 86 109 0.0 4.0 0.00 0.00 0.00 13 1006.8
20260507232041 86 109 1.0 6.0 0.00 0.00 0.00 13 1006.9
20260507231543 86 109 2.0 6.0 0.00 0.00 0.00 13 1007.0
20260507231040 85 119 1.0 3.0 0.00 0.00 0.00 13 1007.1
20260507230540 85 101 0.0 7.0 0.00 0.00 0.00 13 1007.1
20260507230038 85 90 3.0 7.0 0.00 0.00 0.00 13 1007.1
20260507225540 85 95 4.0 6.0 0.00 0.00 0.00 13 1007.3
20260507225038 85 155 2.0 5.0 0.00 0.00 0.00 13 1007.3
20260507224543 85 71 1.0 5.0 0.00 0.00 0.00 13 1007.4
20260507224035 85 138 1.0 7.0 0.00 0.00 0.00 13 1007.5
20260507223534 85 124 3.0 7.0 0.00 0.00 0.00 13 1007.6
20260507223034 85 28 1.0 5.0 0.00 0.00 0.00 13 1007.7
20260507222532 85 52 1.0 6.0 0.00 0.00 0.00 13 1007.8
20260507222032 85 81 2.0 9.0 0.00 0.00 0.00 13 1007.9
20260507221530 84 23 0.0 9.0 0.00 0.00 0.00 13 1008.0
20260507221029 85 55 3.0 9.0 0.00 0.00 0.00 13 1008.1
20260507220528 84 48 2.0 10.0 0.00 0.00 0.00 13 1008.3
20260507220038 84 42 4.0 11.0 0.00 0.00 0.00 13 1008.3
20260507215530 84 24 4.0 11.0 0.00 0.00 0.00 13 1008.4
20260507215026 85 23 3.0 8.0 0.00 0.00 0.00 12 1008.5
20260507214533 85 348 1.0 4.0 0.00 0.00 0.00 13 1008.6
20260507214024 84 38 0.0 9.0 0.00 0.00 0.00 13 1008.7
20260507213523 83 5 0.0 9.0 0.00 0.00 0.00 13 1008.8
20260507213022 84 5 1.0 6.0 0.00 0.00 0.00 13 1009.0
20260507212521 84 59 3.0 6.0 0.00 0.00 0.00 13 1009.2
20260507212021 84 5 2.0 6.0 0.00 0.00 0.00 13 1009.2
20260507211519 84 103 2.0 5.0 0.00 0.00 0.00 13 1009.4
20260507211017 84 126 2.0 8.0 0.00 0.00 0.00 13 1009.4
20260507210517 83 25 2.0 8.0 0.00 0.00 0.00 13 1009.6
20260507210015 83 44 1.0 6.0 0.00 0.00 0.00 13 1009.7
20260507205518 83 151 1.0 8.0 0.00 0.00 0.00 13 1009.7
20260507205015 83 153 3.0 9.0 0.00 0.00 0.00 13 1009.8
20260507204514 83 89 3.0 10.0 0.00 0.00 0.00 13 1009.9
20260507204017 82 94 3.0 10.0 0.00 0.00 0.00 13 1009.9
20260507203513 82 65 2.0 9.0 0.00 0.00 0.00 13 1010.0
20260507203011 83 146 2.0 9.0 0.00 0.00 0.00 13 1010.1
20260507202512 82 100 3.0 9.0 0.00 0.00 0.00 13 1010.2
20260507202009 82 5 4.0 9.0 0.00 0.00 0.00 13 1010.3
20260507201511 82 90 4.0 7.0 0.00 0.00 0.00 14 1010.3
20260507201009 81 96 2.0 9.0 0.00 0.00 0.00 13 1010.3
20260507200508 81 88 3.0 13.0 0.00 0.00 0.00 13 1010.4
20260507200007 82 123 6.0 13.0 0.00 0.00 0.00 13 1010.5
20260507195506 81 49 2.0 9.0 0.00 0.00 0.00 13 1010.5
20260507195005 81 137 2.0 9.0 0.00 0.00 0.00 13 1010.7
20260507194504 81 144 3.0 8.0 0.00 0.00 0.00 13 1010.7
20260507194005 81 132 3.0 8.0 0.00 0.00 0.00 13 1010.9
20260507193503 81 32 1.0 8.0 0.00 0.00 0.00 13 1011.0
20260507193002 81 139 0.0 8.0 0.00 0.00 0.00 13 1011.0
20260507192501 81 156 4.0 8.0 0.00 0.00 0.00 13 1011.1
20260507192103 81 174 1.0 7.0 0.00 0.00 0.00 13 1011.2
20260507191602 80 102 1.0 7.0 0.00 0.00 0.00 13 1011.2
20260507191100 80 125 1.0 9.0 0.00 0.00 0.00 13 1011.3
20260507190558 80 105 4.0 10.0 0.00 0.00 0.00 13 1011.4
20260507190058 80 134 4.0 10.0 0.00 0.00 0.00 13 1011.6
20260507185556 80 96 1.0 6.0 0.00 0.00 0.00 13 1011.7
20260507185056 79 129 3.0 9.0 0.00 0.00 0.00 14 1011.8
20260507184602 79 78 2.0 9.0 0.00 0.00 0.00 13 1011.8
20260507184054 79 88 1.0 8.0 0.00 0.00 0.00 14 1011.9
20260507183551 78 106 3.0 8.0 0.00 0.00 0.00 13 1011.9
20260507183053 79 83 3.0 8.0 0.00 0.00 0.00 13 1012.0
20260507182550 79 142 2.0 7.0 0.00 0.00 0.00 14 1012.1
20260507182050 79 90 2.0 7.0 0.00 0.00 0.00 13 1012.2
20260507181559 78 90 2.0 7.0 0.00 0.00 0.00 14 1012.3
20260507181048 78 165 1.0 7.0 0.00 0.00 0.00 14 1012.3
20260507180549 78 172 3.0 7.0 0.00 0.00 0.00 14 1012.4
20260507180046 78 149 3.0 7.0 0.00 0.00 0.00 14 1012.5
20260507175548 79 97 2.0 7.0 0.00 0.00 0.00 14 1012.6
20260507175046 78 84 3.0 10.0 0.00 0.00 0.00 14 1012.6
20260507174553 78 123 3.0 10.0 0.00 0.00 0.00 14 1012.7
20260507174046 78 57 1.0 5.0 0.00 0.00 0.00 14 1012.7
20260507173544 78 64 1.0 6.0 0.00 0.00 0.00 14 1012.7
20260507173043 77 124 1.0 7.0 0.00 0.00 0.00 14 1012.7
20260507172542 77 115 0.0 5.0 0.00 0.00 0.00 14 1012.7
20260507172042 77 135 1.0 5.0 0.00 0.00 0.00 14 1012.8
20260507171543 77 124 2.0 5.0 0.00 0.00 0.00 14 1012.8
20260507171042 77 126 1.0 7.0 0.00 0.00 0.00 14 1012.9
20260507170542 76 154 2.0 8.0 0.00 0.00 0.00 14 1012.9
20260507170141 76 139 2.0 8.0 0.00 0.00 0.00 14 1012.8
20260507165539 76 132 1.0 7.0 0.00 0.00 0.00 14 1012.9
20260507165042 76 130 2.0 7.0 0.00 0.00 0.00 15 1012.9
20260507164540 76 101 2.0 7.0 0.00 0.00 0.00 15 1013.0
20260507164045 76 87 1.0 8.0 0.00 0.00 0.00 14 1013.0
20260507163540 76 112 1.0 8.0 0.00 0.00 0.00 15 1012.9
20260507163040 77 104 0.0 6.0 0.00 0.00 0.00 15 1013.0
20260507162538 76 109 1.0 6.0 0.00 0.00 0.00 16 1013.0
20260507162038 75 173 2.0 8.0 0.00 0.00 0.00 16 1013.1
20260507161539 76 107 1.0 8.0 0.00 0.00 0.00 15 1013.0
20260507161041 76 92 2.0 6.0 0.00 0.00 0.00 15 1013.1
20260507160538 76 97 1.0 4.0 0.00 0.00 0.00 16 1013.1
20260507160036 75 110 1.0 6.0 0.00 0.00 0.00 15 1013.1
20260507155536 75 105 2.0 6.0 0.00 0.00 0.00 15 1013.1
20260507155037 75 111 2.0 6.0 0.00 0.00 0.00 15 1013.2
20260507154534 75 93 1.0 7.0 0.00 0.00 0.00 16 1013.1
20260507154035 75 94 1.0 7.0 0.00 0.00 0.00 16 1013.2
20260507153533 75 117 1.0 6.0 0.00 0.00 0.00 17 1013.2
20260507153037 75 147 2.0 5.0 0.00 0.00 0.00 16 1013.3
20260507152534 75 120 0.0 4.0 0.00 0.00 0.00 16 1013.2
20260507152036 74 130 0.0 4.0 0.00 0.00 0.00 16 1013.3
20260507151531 74 13 1.0 3.0 0.00 0.00 0.00 17 1013.3
20260507151031 74 10 0.0 3.0 0.00 0.00 0.00 17 1013.3
20260507150530 74 9 0.0 3.0 0.00 0.00 0.00 17 1013.3
20260507150039 74 9 1.0 4.0 0.00 0.00 0.00 17 1013.4
20260507145530 74 5 0.0 4.0 0.00 0.00 0.00 17 1013.4
20260507145031 74 349 0.0 3.0 0.00 0.00 0.00 17 1013.4
20260507144528 73 355 1.0 3.0 0.00 0.00 0.00 17 1013.5
20260507144028 73 355 0.0 4.0 0.00 0.00 0.00 18 1013.4
20260507143532 73 355 0.0 4.0 0.00 0.00 0.00 17 1013.5
20260507143033 73 346 0.0 2.0 0.00 0.00 0.00 17 1013.5
20260507142528 73 346 0.0 2.0 0.00 0.00 0.00 17 1013.5
20260507142026 73 346 0.0 0.0 0.00 0.00 0.00 17 1013.5
20260507141525 72 346 0.0 0.0 0.00 0.00 0.00 17 1013.5
20260507141024 72 346 0.0 1.0 0.00 0.00 0.00 19 1013.5
20260507140523 71 346 0.0 1.0 0.00 0.00 0.00 19 1013.4
20260507140122 71 346 0.0 1.0 0.00 0.00 0.00 19 1013.3
20260507135524 70 346 0.0 1.0 0.00 0.00 0.00 20 1013.3
20260507135020 70 346 0.0 1.0 0.00 0.00 0.00 20 1013.2
20260507134520 69 346 0.0 1.0 0.00 0.00 0.00 20 1013.2
20260507134020 69 346 0.0 1.0 0.00 0.00 0.00 19 1013.2
20260507133519 68 346 0.0 1.0 0.00 0.00 0.00 20 1013.1
20260507133019 68 346 0.0 1.0 0.00 0.00 0.00 20 1013.0
20260507132518 67 346 0.0 1.0 0.00 0.00 0.00 20 1013.0
20260507132018 67 346 0.0 1.0 0.00 0.00 0.00 20 1013.0
20260507131526 66 346 0.0 1.0 0.00 0.00 0.00 20 1013.0
20260507131017 65 346 0.0 1.0 0.00 0.00 0.00 21 1013.0
20260507130519 65 346 0.0 1.0 0.00 0.00 0.00 21 1012.9
20260507130019 65 346 0.0 1.0 0.00 0.00 0.00 21 1012.9
20260507125516 65 346 0.0 2.0 0.00 0.00 0.00 21 1012.9
20260507125016 64 346 0.0 2.0 0.00 0.00 0.00 21 1013.0
20260507124515 64 346 0.0 3.0 0.00 0.00 0.00 21 1012.9
20260507124016 64 346 1.0 3.0 0.00 0.00 0.00 21 1012.8
20260507123515 64 346 1.0 3.0 0.00 0.00 0.00 21 1012.8
20260507123014 64 346 0.0 1.0 0.00 0.00 0.00 21 1012.7
20260507122514 64 346 0.0 1.0 0.00 0.00 0.00 21 1012.7
20260507122014 64 346 0.0 1.0 0.00 0.00 0.00 21 1012.8
20260507121514 64 346 0.0 1.0 0.00 0.00 0.00 21 1012.8
20260507121013 64 346 0.0 1.0 0.00 0.00 0.00 21 1012.9
20260507120512 64 346 0.0 3.0 0.00 0.00 0.00 21 1012.8
20260507120024 64 346 0.0 3.0 0.00 0.00 0.00 21 1012.8
20260507115511 64 349 0.0 2.0 0.00 0.00 0.00 21 1012.9
20260507115010 64 349 0.0 3.0 0.00 0.00 0.00 21 1012.9
20260507114510 64 349 0.0 3.0 0.00 0.00 0.00 20 1012.9
20260507114012 64 349 1.0 2.0 0.00 0.00 0.00 20 1012.9
20260507113509 64 349 1.0 2.0 0.00 0.00 0.00 20 1012.9
20260507113007 65 349 0.0 1.0 0.00 0.00 0.00 19 1012.9
20260507112510 65 349 0.0 1.0 0.00 0.00 0.00 19 1012.9
20260507112005 66 349 0.0 2.0 0.00 0.00 0.00 19 1012.9
20260507111507 66 349 0.0 2.0 0.00 0.00 0.00 19 1012.9
20260507111028 66 349 0.0 2.0 0.00 0.00 0.00 18 1013.0
20260507110504 67 349 0.0 2.0 0.00 0.00 0.00 18 1013.0
20260507110003 67 349 0.0 2.0 0.00 0.00 0.00 18 1013.0
20260507105502 67 349 0.0 2.0 0.00 0.00 0.00 18 1013.0
20260507105003 67 349 0.0 2.0 0.00 0.00 0.00 18 1013.0
20260507104503 67 349 1.0 3.0 0.00 0.00 0.00 18 1013.0
20260507104003 66 349 1.0 3.0 0.00 0.00 0.00 18 1013.1
20260507103501 66 349 1.0 3.0 0.00 0.00 0.00 19 1013.0
20260507103002 66 349 1.0 3.0 0.00 0.00 0.00 18 1013.0
20260507102502 67 349 1.0 3.0 0.00 0.00 0.00 19 1013.0
20260507102002 67 349 2.0 3.0 0.00 0.00 0.00 19 1012.9
20260507101503 66 349 1.0 3.0 0.00 0.00 0.00 19 1013.0
20260507101001 66 349 0.0 2.0 0.00 0.00 0.00 19 1012.9
20260507100600 66 349 0.0 2.0 0.00 0.00 0.00 19 1012.9
20260507100100 66 349 0.0 2.0 0.00 0.00 0.00 19 1012.9
20260507095603 66 349 0.0 2.0 0.00 0.00 0.00 19 1012.9
20260507095103 66 349 0.0 2.0 0.00 0.00 0.00 19 1012.9
20260507094559 67 349 0.0 1.0 0.00 0.00 0.00 19 1012.9
20260507094058 67 349 0.0 2.0 0.00 0.00 0.00 20 1012.8
20260507093558 67 349 1.0 2.0 0.00 0.00 0.00 20 1012.8
20260507093059 66 350 0.0 2.0 0.00 0.00 0.00 20 1012.9
20260507092601 67 350 0.0 3.0 0.00 0.00 0.00 20 1013.0
20260507092055 67 350 0.0 4.0 0.00 0.00 0.00 20 1013.0
20260507091557 68 355 2.0 4.0 0.00 0.00 0.00 19 1013.0
20260507091054 68 27 0.0 2.0 0.00 0.00 0.00 19 1013.1
20260507090552 68 27 0.0 2.0 0.00 0.00 0.00 20 1013.0
20260507090056 68 27 0.0 2.0 0.00 0.00 0.00 20 1013.0
20260507085550 69 27 0.0 2.0 0.00 0.00 0.00 19 1013.1
20260507085050 69 27 0.0 3.0 0.00 0.00 0.00 19 1013.0
20260507084551 70 27 1.0 3.0 0.00 0.00 0.00 19 1013.1
20260507084052 70 27 1.0 2.0 0.00 0.00 0.00 19 1013.1
20260507083549 70 27 0.0 2.0 0.00 0.00 0.00 20 1013.1
20260507083049 70 27 0.0 4.0 0.00 0.00 0.00 20 1013.0
20260507082548 70 27 1.0 4.0 0.00 0.00 0.00 20 1013.0
20260507082051 70 27 0.0 2.0 0.00 0.00 0.00 22 1013.1
20260507081550 70 27 0.0 5.0 0.00 0.00 0.00 22 1013.1
20260507081046 70 27 0.0 2.0 0.00 0.00 0.00 24 1013.1
20260507080548 70 27 0.0 2.0 0.00 0.00 0.00 25 1013.1
20260507080049 70 27 0.0 1.0 0.00 0.00 0.00 26 1013.1
20260507075544 70 27 0.0 4.0 0.00 0.00 0.00 25 1013.1
20260507075043 70 27 1.0 4.0 0.00 0.00 0.00 25 1013.2
20260507074558 70 27 1.0 2.0 0.00 0.00 0.00 26 1013.1
20260507074041 70 27 0.0 3.0 0.00 0.00 0.00 26 1013.0
20260507073544 70 27 0.0 4.0 0.00 0.00 0.00 26 1012.9
20260507073040 70 27 2.0 5.0 0.00 0.00 0.00 26 1012.9
20260507072541 71 25 2.0 4.0 0.00 0.00 0.00 26 1012.9
20260507072038 71 340 0.0 4.0 0.00 0.00 0.00 26 1012.6
20260507071538 70 340 0.0 4.0 0.00 0.00 0.00 26 1012.6
20260507071038 71 340 2.0 4.0 0.00 0.00 0.00 26 1012.5
20260507070537 71 345 1.0 4.0 0.00 0.00 0.00 26 1012.5
20260507070036 71 355 0.0 3.0 0.00 0.00 0.00 25 1012.6
20260507065535 71 355 1.0 3.0 0.00 0.00 0.00 25 1012.6
20260507065035 71 355 1.0 4.0 0.00 0.00 0.00 25 1012.5
20260507064535 71 360 1.0 5.0 0.00 0.00 0.00 25 1012.5
20260507064037 71 360 2.0 5.0 0.00 0.00 0.00 25 1012.4
20260507063536 71 360 2.0 6.0 0.00 0.00 0.00 25 1012.3
20260507063035 71 5 3.0 6.0 0.00 0.00 0.00 26 1012.2
20260507062535 71 15 3.0 7.0 0.00 0.00 0.00 26 1012.2
20260507062038 71 83 2.0 5.0 0.00 0.00 0.00 26 1012.2
20260507061535 71 106 2.0 4.0 0.00 0.00 0.00 26 1012.1
20260507061034 71 126 1.0 3.0 0.00 0.00 0.00 25 1012.0
20260507060534 72 130 0.0 2.0 0.00 0.00 0.00 25 1011.9
20260507060033 72 130 0.0 2.0 0.00 0.00 0.00 25 1011.8
20260507055534 72 130 0.0 2.0 0.00 0.00 0.00 25 1011.7
20260507055035 72 130 1.0 2.0 0.00 0.00 0.00 24 1011.7
20260507054533 72 130 0.0 3.0 0.00 0.00 0.00 24 1011.7
20260507054033 72 130 1.0 3.0 0.00 0.00 0.00 24 1011.6
20260507053534 72 130 1.0 3.0 0.00 0.00 0.00 24 1011.6
20260507053035 72 130 0.0 3.0 0.00 0.00 0.00 24 1011.6
20260507052532 72 130 0.0 2.0 0.00 0.00 0.00 24 1011.6
20260507052033 72 130 0.0 2.0 0.00 0.00 0.00 24 1011.6
20260507051533 72 130 0.0 2.0 0.00 0.00 0.00 24 1011.5
20260507051033 72 130 0.0 1.0 0.00 0.00 0.00 24 1011.5
20260507050532 72 130 0.0 1.0 0.00 0.00 0.00 24 1011.5
20260507050032 72 130 0.0 1.0 0.00 0.00 0.00 24 1011.5
20260507045532 72 130 0.0 1.0 0.00 0.00 0.00 24 1011.5
20260507045033 72 130 0.0 1.0 0.00 0.00 0.00 24 1011.4
20260507044533 72 130 0.0 1.0 0.00 0.00 0.00 24 1011.4
20260507044030 73 130 0.0 1.0 0.00 0.00 0.00 24 1011.4
20260507043530 73 130 0.0 2.0 0.00 0.00 0.00 24 1011.5
20260507043032 72 130 0.0 2.0 0.00 0.00 0.00 24 1011.5
20260507042530 72 130 0.0 1.0 0.00 0.00 0.00 24 1011.4
20260507042030 73 130 0.0 1.0 0.00 0.00 0.00 24 1011.4
20260507041531 73 130 0.0 1.0 0.00 0.00 0.00 24 1011.3
20260507041032 73 130 0.0 1.0 0.00 0.00 0.00 24 1011.3
20260507040532 73 130 0.0 0.0 0.00 0.00 0.00 24 1011.3
20260507040030 73 130 0.0 0.0 0.00 0.00 0.00 24 1011.3